Weather in Johvi

Estonia     59°21′27″N   27°25′14″E
temp.,
°C
wind,
m/s
gust,
m/s
humid.,
%
clouds,
%
prec.,
mm/h
press.,
hPa
HPBL,
m
5 march, fri
fri523:00−3nnw2589100 0.4 1007433
02:00−4nnw488799 1.3 1009720
05:00−5nnw4792100 0.4 1009635
08:00−5nnw4888100 1.4 1011691
11:00−4nnw4670100 0.2 1013888
14:00−3nw466567 0.2 1014930
17:00−4nw377135 0.0 1015948
20:00−4nw278168 0.2 1017546
6 march, sat
sat623:00−6nw238483 0.1 101895
02:00−6w238761 0.2 101996
05:00−7wsw37913 0.0 1017184
08:00−5wsw498236 0.0 1016449
11:00−2sw61166100 0.0 1013830
14:00−1sw81588100 0.6 10081202
17:00−1wsw71685100 0.4 10021289
20:000wsw71694100 1.0 9981238
7 march, sun
sun723:00−2wnw41277100 3.0 9951108
02:00−4w41171100 3.0 994786
05:00−6w51265100 0.2 9921193
08:00−7wsw487486 0.3 991719
11:00−5nw5990100 3.1 990859
14:00−6ne4593100 6.9 992455
17:00−7n61168100 1.7 9961376
20:00−7n5107697 1.8 1000900
8 march, mon
mon823:00−7nnw499299 0.1 1003533
02:00−8n5109099 0.4 1006872
05:00−9n61090100 0.6 1007876
08:00−10n61189100 0.8 1011813
11:00−8n61078100 0.1 1013872
14:00−7n596984 0.1 10151148
17:00−8nnw3875100 0.0 1016692
20:00−11nnw238473 0.0 101861
9 march, tue
tue923:00−11sw128967 0.0 101740
02:00−9sw398981 0.0 1016282
05:00−6w41386100 0.0 1014718
08:00−4wnw61292100 0.5 10131007
11:00−2wnw51093100 2.0 1014871
14:00−1wnw4974100 2.9 10141316
17:00−2wnw1285100 0.1 101449
20:00−3sw3897100 1.0 1013469